Location: S�tio Afonso Gruber
(26.1760°S, 49.5250°W)
Time: 23:09:15
(UTC+00:00)

Intelsat 5-3 Rocket - Visible Passes

Search period start: 01 October 2020 00:00
Search period end: 11 October 2020 00:00
Orbit: 283 x 6117 km, 23.5° (Epoch: 01 October)

Date Brightness Start Highest point End Pass type
(mag) Time Alt. Az. Time Alt. Az. Time Alt. Az.
01 Oct 7.8 01:42:58 17° E 01:42:58 17° E 01:48:17 10° E visible
01 Oct 6.6 04:18:22 77° ENE 04:18:22 77° ENE 04:56:50 10° E visible
01 Oct 7.1 06:53:46 30° W 07:17:36 70° NNW 07:56:01 10° ENE visible
02 Oct6.201:01:34E01:01:34E00:29:14NWvisible
02 Oct 6.9 03:36:58 57° E 03:36:58 57° E 04:06:37 10° E visible
02 Oct 6.8 06:12:23 45° W 06:27:58 74° NNW 07:09:15 10° ENE visible
02 Oct 5.4 23:46:50 10° NW 23:48:17 19° NNW 23:48:17 19° NNW visible
03 Oct 7.2 02:55:36 39° E 02:55:36 39° E 03:15:43 10° E visible
03 Oct 6.6 05:31:01 63° WNW 05:38:46 77° NNW 06:21:27 10° ENE visible
03 Oct 7.6 08:07:07 10° W 08:42:06 52° NNW 09:15:06 10° NE visible
03 Oct 4.8 23:04:32 10° NNW 23:07:17 24° N 23:07:17 24° N visible
04 Oct 7.5 02:14:15 24° E 02:14:15 24° E 02:24:41 10° E visible
04 Oct 6.5 04:49:39 80° NNW 04:50:18 80° N 05:32:33 10° ENE visible
04 Oct 7.3 07:25:04 20° W 07:52:40 58° NNW 08:29:31 10° NE visible
04 Oct 5.0 22:22:45 10° N 22:26:04 17° NE 22:26:15 17° NE visible
05 Oct 6.5 01:32:56 11° E 01:32:56 11° E 01:34:03 10° E visible
05 Oct 6.6 04:08:20 68° ENE 04:08:20 68° ENE 04:42:35 10° ENE visible
05 Oct 7.0 06:43:45 33° W 07:03:09 63° NNW 07:43:03 10° NE visible
06 Oct 5.7 00:19:52 10° WNW 00:51:38 - E 00:20:36 15° NW visible
06 Oct 6.9 03:27:03 48° ENE 03:27:03 48° ENE 03:51:48 10° E visible
06 Oct 6.7 06:02:28 49° WNW 06:13:54 68° NNW 06:55:35 10° NE visible
06 Oct 4.6 23:37:03 10° NW 23:39:29 31° NNW 23:39:29 31° NNW visible
07 Oct 7.3 02:45:47 31° E 02:45:47 31° E 03:00:38 10° E visible
07 Oct 6.5 05:21:12 67° NW 05:25:13 71° NNW 06:07:04 10° ENE visible
07 Oct 7.4 07:56:38 11° W 08:27:10 45° NNW 09:01:50 10° NE visible
07 Oct 4.2 22:54:25 10° NNW 22:58:18 33° NNE 22:58:18 33° NNE visible
08 Oct 7.6 02:04:32 17° E 02:04:32 17° E 02:09:40 10° E visible
08 Oct 6.5 04:39:58 72° NNE 04:39:58 72° NNE 05:17:28 10° ENE visible
08 Oct 7.1 07:15:24 23° W 07:37:46 51° NNW 08:15:37 10° NE visible
08 Oct 4.3 22:12:07 10° N 22:15:03 20° NE 22:17:03 17° ENE visible
09 Oct6.201:23:19E01:23:19E00:52:29WNWvisible
09 Oct 6.7 03:58:44 55° ENE 03:58:44 55° ENE 04:26:57 10° ENE visible
09 Oct 6.8 06:34:09 38° WNW 06:48:29 55° NNW 07:28:26 10° NE visible
10 Oct 5.2 00:09:47 10° WNW 00:11:10 22° WNW 00:11:10 22° WNW visible
10 Oct 7.1 03:17:31 37° ENE 03:17:31 37° ENE 03:35:54 10° ENE visible
10 Oct 6.5 05:52:57 53° NW 05:59:39 60° NNW 06:40:14 10° NE visible
10 Oct 3.8 23:26:46 10° WNW 23:29:49 45° NNW 23:29:49 45° NNW visible
